Location: Unspecified
(42.3650°N, 71.1030°W)
Time: 14:20:35
(UTC+00:00)

STARS - Visible Passes

Search period start: 12 July 2024 00:00
Search period end: 22 July 2024 00:00
Orbit: 605 x 617 km, 98.1° (Epoch: 11 July)

Date Brightness Start Highest point End Pass type
(mag) Time Alt. Az. Time Alt. Az. Time Alt. Az.
12 Jul ? 04:21:46 10° NNE 04:24:49 29° ENE 04:24:49 29° ENE visible
12 Jul ? 05:57:53 10° NNW 06:01:23 24° WNW 06:01:48 24° WNW visible
13 Jul ? 04:36:03 10° NNE 04:39:27 40° ENE 04:39:27 40° ENE visible
13 Jul ? 06:12:51 10° NNW 06:15:45 18° WNW 06:16:26 17° WNW visible
14 Jul ? 04:50:25 10° NNE 04:54:04 56° NE 04:54:04 56° NE visible
14 Jul ? 06:28:06 10° NW 06:30:06 13° WNW 06:31:02 12° WNW visible
15 Jul ? 05:04:53 10° NNE 05:08:41 68° N 05:08:41 68° N visible
16 Jul ? 03:45:37 10° ENE 03:46:18 11° ENE 03:46:18 11° ENE visible
16 Jul ? 05:19:25 10° N 05:23:17 57° NW 05:23:17 57° NW visible
17 Jul ? 03:59:06 10° NE 04:00:53 16° ENE 04:00:53 16° ENE visible
17 Jul ? 05:34:00 10° N 05:37:52 42° WNW 05:37:52 42° WNW visible
18 Jul ? 04:13:02 10° NE 04:15:28 22° ENE 04:15:28 22° ENE visible
18 Jul ? 05:48:41 10° N 05:52:26 30° WNW 05:52:26 30° WNW visible
19 Jul ? 04:27:09 10° NNE 04:30:02 30° ENE 04:30:02 30° ENE visible
19 Jul ? 06:03:28 10° NNW 06:06:48 22° WNW 06:07:00 22° WNW visible
20 Jul ? 04:41:24 10° NNE 04:44:35 40° ENE 04:44:35 40° ENE visible
20 Jul ? 06:18:27 10° NNW 06:21:06 16° WNW 06:21:33 16° WNW visible
21 Jul ? 04:55:45 10° NNE 04:59:08 52° NE 04:59:08 52° NE visible
21 Jul ? 06:33:49 10° NW 06:35:22 12° WNW 06:36:06 11° WNW visible
